Home   Weather   Pécs   Past weeks

Flag for Hungary Past Weather in Pécs, Hungary — Yesterday and Last 2 Weeks

Now
27 °F

Fog.


Feels Like: 27 °F
Forecast: 25 / 45 °F
Wind: No wind

Location: Pecs / Pogany

Current Time: Dec 8, 2016 at 1:06:49 pm

Latest Report: Dec 8, 2016 at 12:00 pm


Visibility: 0 mi

Pressure: 30.69 "Hg

Humidity: 98%

Dew Point: 26 °F

Location of PécsLocation

Past Weather in Pécs — Graph

°F

Pécs Temperature Yesterday

Maximum temperature yesterday: 36 °F (at 12:00 pm)
Minimum temperature yesterday: 21 °F (at 8:00 am)
Average temperature yesterday: 27 °F

High & Low Weather Summary for the Past Weeks

 TemperatureHumidityPressure
High52 °F (Nov 24, 2:00 pm)98% (Nov 27, 10:00 am)30.78 "Hg (Nov 27, 10:00 am)
Low21 °F (Dec 7, 8:00 am)48% (Nov 29, 3:00 pm)29.86 "Hg (Dec 2, 7:00 am)
Average36 °F80%30.30 "Hg
* Reported Nov 23 11:00 am — Dec 8 11:00 am, Pécs, Weather by CustomWeather, © 2016

Note: Actual official high and low records may vary slightly from our data, if they occured in-between our weather recording intervals... More about our weather records

Advertising

Pécs Weather History for the Previous 24 Hours

Scroll right to see more
 ConditionsComfort  
Time TempWeatherWind HumidityBarometerVisibility
11:00 am
Thu, Dec 8
27 °FFog.No wind98%30.70 "Hg0 mi
10:00 am26 °FIce fog.1 mph98%30.72 "Hg0 mi
9:00 am26 °FFog.1 mph98%30.73 "Hg0 mi
8:00 am26 °FFog.1 mph98%30.72 "Hg0 mi
7:00 am26 °FIce fog.1 mph98%30.73 "Hg0 mi
6:00 am26 °FChilly.2 mph98%30.73 "HgN/A
5:00 am26 °FChilly.2 mph98%30.73 "HgN/A
4:00 am26 °FChilly.2 mph97%30.76 "HgN/A
3:00 am25 °FChilly.2 mph97%30.76 "HgN/A
2:00 am25 °FCold.2 mph97%30.77 "HgN/A
1:00 am25 °FChilly.2 mph97%30.78 "HgN/A
12:00 am26 °FChilly.2 mph98%30.78 "HgN/A
11:00 pm
Wed, Dec 7
24 °FCold.2 mph97%30.78 "HgN/A
10:00 pm25 °FChilly.1 mph97%30.77 "HgN/A
9:00 pm25 °FChilly.1 mph97%30.78 "HgN/A
8:00 pm23 °FCold.No wind97%30.77 "HgN/A
7:00 pm26 °FChilly.1 mph98%30.77 "HgN/A
6:00 pm25 °FFog.2 mph98%30.77 "Hg0 mi
5:00 pm26 °FChilly.1 mph98%30.76 "HgN/A
4:00 pm27 °FFog.2 mph97%30.74 "Hg0 mi
3:00 pm34 °FSunny.1 mph88%30.74 "Hg4 mi
2:00 pm35 °FPassing clouds.1 mph86%30.72 "Hg4 mi
1:00 pm36 °FPassing clouds.1 mph82%30.72 "Hg5 mi
Weather by CustomWeather, © 2016

See weather overviewHow to use our weather pages